Location: D�nning
(49.2479°N, 12.8491°E)
Time: 05:02:46
(UTC+00:00)

MOS 1 Rocket - Pass Details

Date: 18 September 2020
Orbit: 614 x 831 km, 97.4° (Epoch: 29 October)

Event Time Altitude Azimuth Distance (km) Brightness Sun altitude
Rises 18:56:25 0° 8° (N) 3,048 6.8 -17.0°
Reaches altitude 10° 18:58:46 10° 3° (N) 2,097 6.0 -17.3°
Maximum altitude 19:03:08 49° 290° (WNW) 837 4.1 -18.0°
Drops below altitude 10° 19:07:18 10° 216° (SW) 1,995 5.8 -18.6°
Sets 19:09:29 0° 210° (SSW) 2,884 6.6 -18.9°
